Date,TemperatureHighF,TemperatureAvgF,TemperatureLowF,DewpointHighF,DewpointAvgF,DewpointLowF,HumidityHigh,HumidityAvg,HumidityLow,PressureMaxIn,PressureMinIn,WindSpeedMaxMPH,WindSpeedAvgMPH,GustSpeedMaxMPH,PrecipitationSumIn
2014-1-1,41,36,25,30,25,16,96,63,52,0.00,40.00,13,8,36,0.42
2014-1-2,31,29,26,30,27,23,97,93,86,0.00,40.00,5,3,12,0.03
2014-1-3,37,34,28,32,27,23,95,77,56,0.00,40.00,10,6,19,0.07
2014-1-8,34,32,27,29,24,22,97,74,64,0.00,40.00,7,4,14,0.00
2014-1-9,28,27,26,27,26,25,96,96,94,0.00,40.00,7,3,11,0.00
2014-1-10,26,24,22,25,24,21,95,94,94,0.00,40.00,2,1,4,0.00
2014-1-11,21,19,16,19,17,13,93,91,89,0.00,40.00,2,1,4,0.00
2014-1-12,20,14,11,18,11,8,92,88,86,0.00,40.00,5,1,11,0.00
2014-1-13,22,19,15,20,17,13,95,91,87,0.00,40.00,5,3,11,0.00
2014-1-14,34,27,16,29,21,13,96,81,56,0.00,40.00,23,9,42,0.00
2014-1-15,40,33,28,29,21,9,97,66,34,0.00,40.00,15,8,35,0.11
2014-1-16,41,31,28,33,28,21,98,88,62,0.00,40.00,13,5,31,0.10
2014-1-17,42,39,31,35,30,25,89,72,51,0.00,40.00,25,12,55,0.93
2014-1-18,42,37,30,31,26,20,93,67,45,0.00,40.00,18,14,34,0.01
2014-1-19,36,31,29,28,24,20,85,75,62,0.00,40.00,9,5,22,0.01
2014-1-20,44,40,32,32,27,22,74,59,46,0.00,40.00,16,7,47,0.01
2014-1-21,44,40,33,32,29,26,90,67,56,0.00,40.00,20,11,40,0.03
2014-1-22,47,40,34,35,31,28,91,73,51,0.00,40.00,16,7,38,0.02
2014-1-23,49,43,36,38,34,28,98,72,53,0.00,40.00,17,8,33,0.07
2014-1-24,46,44,39,39,31,28,83,61,53,0.00,40.00,19,12,42,0.04
2014-1-25,52,43,37,35,33,28,86,69,44,0.00,40.00,7,4,28,0.04
2014-1-26,53,48,39,36,30,23,78,50,35,0.00,40.00,18,9,40,0.00
2014-1-27,55,48,41,33,30,23,64,51,33,0.00,40.00,11,5,22,0.00
2014-2-2,39,30,24,15,9,5,52,40,31,0.00,40.00,4,2,6,0.00
2014-2-3,37,32,28,19,10,6,48,41,33,0.00,40.00,6,3,15,0.00
2014-2-4,38,32,27,14,12,8,48,42,36,0.00,40.00,4,2,6,0.00
2014-2-5,31,25,22,17,12,7,65,56,47,0.00,40.00,4,2,8,0.00
2014-2-6,27,21,15,15,10,6,90,62,45,0.00,40.00,10,4,20,0.00
2014-2-7,29,22,17,13,8,0,81,55,39,0.00,40.00,9,4,18,0.00
2014-2-8,29,20,12,18,9,-2,73,61,49,0.00,40.00,8,4,13,0.00
2014-2-9,19,11,7,3,-1,-3,70,59,41,0.00,40.00,4,3,10,0.00
2014-2-10,18,13,9,4,-3,-11,72,50,36,0.00,40.00,9,5,16,0.00
2014-2-11,17,11,6,3,-7,-16,71,46,32,0.00,40.00,5,3,11,0.00
2014-2-12,10,4,1,-3,-10,-15,79,53,36,0.00,40.00,8,4,17,0.00
2014-2-13,8,1,-3,1,-5,-9,77,74,61,0.00,40.00,7,4,16,0.00
2014-2-14,24,15,8,18,7,-1,84,70,43,0.00,40.00,7,4,27,0.00
2014-2-15,20,15,11,11,7,1,88,70,46,0.00,40.00,6,3,16,0.00
2014-2-16,22,16,12,16,11,5,89,78,56,0.00,40.00,5,3,9,0.03
2014-2-17,24,18,13,16,13,9,89,78,64,0.00,40.00,5,2,10,0.01
2014-2-18,25,21,19,19,14,8,92,74,55,0.00,40.00,6,3,10,0.01
2014-2-19,21,18,15,17,16,12,92,89,84,0.00,40.00,4,2,8,0.00
2014-2-20,19,17,12,17,14,8,92,89,84,0.00,40.00,5,2,7,0.00
2014-2-21,28,18,11,17,11,7,87,72,56,0.00,40.00,4,2,6,0.00
2014-2-22,35,28,22,21,16,10,76,63,45,0.00,40.00,10,4,24,0.09
2014-2-23,38,30,23,16,7,-9,61,40,20,0.00,40.00,11,4,29,0.30
2014-2-24,40,30,25,7,-7,-17,40,20,13,0.00,40.00,5,2,9,0.30
2014-3-9,28,19,13,10,4,0,58,51,41,0.00,40.00,7,4,14,0.00
2014-3-10,37,27,17,27,16,4,75,63,48,0.00,40.00,17,9,40,0.02
2014-3-11,43,39,34,31,25,21,88,58,46,0.00,40.00,19,11,36,0.01
2014-3-12,36,31,25,30,21,13,97,70,42,0.00,40.00,18,8,39,0.01
2014-3-13,40,34,27,29,24,20,88,69,49,0.00,40.00,12,7,36,0.01
2014-3-14,42,33,17,33,25,14,95,76,47,0.00,40.00,12,5,35,0.07
2014-3-15,25,17,12,19,12,6,88,80,67,0.00,40.00,5,2,10,0.23
2014-3-17,33,24,16,21,14,8,80,67,51,0.00,40.00,10,6,24,0.01
2014-3-18,35,29,25,26,22,16,93,75,56,0.00,40.00,5,3,9,0.02
2014-3-19,36,25,18,18,13,8,84,61,38,0.00,40.00,6,3,12,0.02
2014-3-20,37,26,19,15,9,-100,66,52,34,0.00,40.00,5,3,10,0.00
2014-3-21,39,29,25,15,9,-100,54,45,32,0.00,40.00,7,4,15,0.00
2014-3-22,38,28,20,13,10,6,65,47,31,0.00,40.00,4,2,9,0.00
2014-3-23,41,30,23,13,7,4,49,39,27,0.00,40.00,4,3,8,0.00
2014-4-20,55,45,36,29,22,18,50,41,29,0.00,40.00,9,4,22,0.00
2014-4-21,55,47,38,31,26,20,57,45,36,0.00,40.00,9,4,24,0.00
2014-4-22,56,48,39,27,24,21,61,39,30,0.00,40.00,9,4,15,0.00
2014-4-23,50,40,34,35,30,27,81,69,55,0.00,40.00,8,4,13,0.00
2014-4-24,50,41,33,33,28,19,91,64,35,0.00,40.00,12,4,24,0.00
2014-4-25,47,41,37,26,20,17,56,45,32,0.00,40.00,12,7,30,0.00
2014-4-26,43,38,35,29,23,14,79,55,37,0.00,40.00,7,5,22,0.00
2014-5-26,60,50,41,42,36,30,83,60,40,0.00,40.00,7,4,14,0.00
2014-5-27,49,47,41,37,34,31,83,61,54,0.00,40.00,13,9,31,0.01
2014-5-28,53,49,47,41,34,11,69,57,20,0.00,40.00,13,9,30,0.01
2014-5-29,53,49,46,44,39,34,88,68,54,0.00,40.00,13,6,35,0.01
2014-5-30,52,49,44,48,40,32,95,73,48,0.00,40.00,16,6,40,0.09
2014-5-31,51,43,34,38,33,29,97,71,49,0.00,40.00,12,9,26,0.56
2014-6-1,46,43,41,32,30,29,67,61,55,0.00,40.00,15,9,26,0.01
2014-7-24,69,58,51,53,46,40,98,68,39,0.00,40.00,10,4,19,0.09
2014-7-25,53,51,49,52,51,49,100,98,92,0.00,40.00,4,2,11,0.56
2014-7-26,63,55,49,53,50,48,99,86,63,0.00,40.00,4,2,7,0.17
2014-7-27,67,57,47,51,46,41,90,69,53,0.00,40.00,15,4,24,0.02
2014-7-28,59,55,48,50,45,41,98,71,53,0.00,40.00,16,6,26,0.37
2014-7-29,68,57,45,56,50,43,97,80,56,0.00,40.00,6,3,11,0.01
2014-7-30,74,64,53,56,50,48,85,62,48,0.00,40.00,8,4,16,0.01
2014-7-31,68,58,52,56,49,48,93,75,60,0.00,40.00,5,3,11,0.00
2014-8-1,70,59,53,56,50,45,84,73,56,0.00,40.00,5,2,10,0.00
2014-8-2,70,59,50,55,50,46,92,73,53,0.00,40.00,6,3,10,0.00
2014-8-3,68,59,52,57,49,38,96,72,46,0.00,40.00,7,4,15,0.23
2014-8-4,58,55,53,56,51,41,96,87,63,0.00,40.00,4,2,11,0.05
2014-8-5,66,58,51,53,46,39,94,65,47,0.00,40.00,13,5,25,0.01
2014-8-6,62,58,53,50,44,41,72,61,48,0.00,40.00,12,6,24,0.01